Location: Dürabuch
(48.2640°N, 11.2185°E)
Time: 02:03:38
(UTC+00:00)

Meteor 1-28 Rocket - Pass Details

Date: 23 May 2024
Orbit: 474 x 489 km, 97.5° (Epoch: 19 June)

Event Time Altitude Azimuth Distance (km) Brightness Sun altitude
Exits shadow 02:01:18 10° 179° (S) 1,634 5.3 -11.4°
Maximum altitude 02:04:45 58° 259° (W) 567 3.1 -11.0°
Drops below altitude 10° 02:08:17 10° 340° (NNW) 1,663 6.2 -10.6°
Sets 02:10:22 0° 344° (NNW) 2,545 7.2 -10.4°
